Location: Unspecified
(44.0704°N, 88.6889°W)
Time: 10:45:53
(UTC+02:00)

Transit 2A - Pass Details

Date: 25 June 2019
Orbit: 595 x 964 km, 66.7° (Epoch: 24 July)

Event Time Altitude Azimuth Distance (km) Brightness Sun altitude
Rises 05:42:54 0° 156° (SSE) 3,611 - -15.8°
Reaches altitude 10° 05:46:40 10° 134° (SE) 2,691 - -16.2°
Exits shadow 05:49:26 15° 108° (ESE) 2,377 8.1 -16.5°
Maximum altitude 05:49:57 15° 102° (ESE) 2,368 8.1 -16.5°
Drops below altitude 10° 05:53:14 10° 71° (ENE) 2,691 8.7 -16.8°
Sets 05:56:58 0° 49° (NE) 3,611 9.6 -17.1°
